Station SMKF1 - Sombrero Key, FL Image indicating link to RSS feed of recent meteorological observations for station SMKF1


Conditions at SMKF1 as of
(5:50 pm EDT)
2150 GMT on 05/27/2024:
     

Click on the graph icon in the table below to see a time series plot of the last five days of that observation.

5-day plot - Atmospheric Pressure Atmospheric Pressure (PRES):29.95 in
Previous observations
TIME
(EDT)
5-day plot - Wind Direction
WDIR
 
5-day plot - Wind Speed
WSPD
kts
5-day plot - Wind Gust
GST
kts
5-day plot - Wave Height
WVHT
ft
5-day plot - Dominant Wave Period
DPD
sec
5-day plot - Average Wave Period
APD
sec
5-day plot - Mean Wave Direction
MWD
 
5-day plot - Atmospheric Pressure
PRES
in
5-day plot - Pressure Tendency
PTDY
in
5-day plot - Air Temperature
ATMP
°F
5-day plot - Water Temperature
WTMP
°F
5-day plot - Dew Point
DEWP
°F
5-day plot - Salinity
SAL
psu
5-day plot - Visibility
VIS
nmi
5-day plot - Tide (above MLLW)
TIDE
ft
2024-05-27 05:40 pm-------29.95-------
2024-05-27 05:30 pm-------29.95-------
2024-05-27 05:20 pm-------29.95-------
2024-05-27 05:10 pm-------29.96-------
2024-05-27 05:00 pm-------29.96-0.04------
2024-05-27 04:50 pm-------29.96-------
2024-05-27 04:40 pm-------29.96-------
2024-05-27 04:30 pm-------29.96-------
2024-05-27 04:20 pm-------29.96-------
2024-05-27 04:10 pm-------29.97-------
2024-05-27 04:00 pm-------29.97-0.03------
2024-05-27 03:50 pm-------29.98-------
2024-05-27 03:40 pm-------29.98-------
2024-05-27 03:30 pm-------29.98-------
2024-05-27 03:20 pm-------29.98-------
2024-05-27 03:10 pm-------29.98-------
2024-05-27 03:00 pm-------29.98-0.01------
2024-05-27 02:50 pm-------29.98-------
2024-05-27 02:40 pm-------29.98-------
2024-05-27 02:20 pm-------29.99-------
2024-05-27 02:10 pm-------29.99-------
2024-05-27 02:00 pm-------29.99+0.01------
2024-05-27 01:50 pm-------29.99-------
2024-05-27 01:40 pm-------30.00-------
2024-05-27 01:30 pm-------30.00-------
2024-05-27 01:20 pm-------30.00-------
2024-05-27 01:10 pm-------30.00-------
2024-05-27 01:00 pm-------30.00+0.03------
2024-05-27 12:50 pm-------30.00-------
2024-05-27 12:40 pm-------30.00-------
2024-05-27 12:30 pm-------30.00-------
2024-05-27 12:20 pm-------30.00-------
2024-05-27 12:10 pm-------30.00-------
2024-05-27 12:00 pm-------29.99+0.03------
2024-05-27 11:50 am-------29.99-------
2024-05-27 11:40 am-------29.99-------
2024-05-27 11:30 am-------29.99-------
2024-05-27 11:20 am-------29.99-------
2024-05-27 11:10 am-------29.99-------
2024-05-27 11:00 am-------29.98+0.04------
2024-05-27 10:50 am-------29.98-------
2024-05-27 10:40 am-------29.98-------
2024-05-27 10:30 am-------29.98-------
2024-05-27 10:20 am-------29.98-------
2024-05-27 10:10 am-------29.98-------
2024-05-27 10:00 am-------29.97+0.04------
2024-05-27 09:50 am-------29.97-------
2024-05-27 09:40 am-------29.97-------
2024-05-27 09:30 am-------29.97-------
2024-05-27 09:20 am-------29.96-------
2024-05-27 09:10 am-------29.96-------
2024-05-27 09:00 am-------29.96+0.04------
2024-05-27 08:50 am-------29.96-------
2024-05-27 08:40 am-------29.96-------
2024-05-27 08:30 am-------29.95-------
2024-05-27 08:20 am-------29.95-------
2024-05-27 08:10 am-------29.95-------
2024-05-27 08:00 am-------29.95+0.03------
2024-05-27 07:50 am-------29.95-------
2024-05-27 07:40 am-------29.95-------
2024-05-27 07:30 am-------29.94-------
2024-05-27 07:20 am-------29.94-------
2024-05-27 07:10 am-------29.93-------
2024-05-27 07:00 am-------29.93+0.01------
2024-05-27 06:50 am-------29.93-------
2024-05-27 06:40 am-------29.93-------
2024-05-27 06:30 am-------29.93-------
2024-05-27 06:20 am-------29.92-------
2024-05-27 06:10 am-------29.92-------
2024-05-27 06:00 am-------29.92-0.01------
2024-05-27 05:50 am-------29.92-------
2024-05-27 05:40 am-------29.92-------
2024-05-27 05:30 am-------29.91-------
2024-05-27 05:20 am-------29.92-------
2024-05-27 05:10 am-------29.91-------
2024-05-27 05:00 am-------29.92-0.04------
2024-05-27 04:50 am-------29.92-------
2024-05-27 04:40 am-------29.91-------
2024-05-27 04:30 am-------29.92-------
2024-05-27 04:20 am-------29.92-------
2024-05-27 04:10 am-------29.92-------
2024-05-27 04:00 am-------29.92-0.04------
2024-05-27 03:50 am-------29.92-------
2024-05-27 03:40 am-------29.92-------
2024-05-27 03:20 am-------29.93-------
2024-05-27 03:10 am-------29.93-------
2024-05-27 03:00 am-------29.93-0.03------
2024-05-27 02:50 am-------29.93-------
2024-05-27 02:40 am-------29.93-------
2024-05-27 02:30 am-------29.93-------
2024-05-27 02:20 am-------29.94-------
2024-05-27 02:10 am-------29.95-------
2024-05-27 02:00 am-------29.95+0.00------
2024-05-27 01:50 am-------29.96-------
2024-05-27 01:40 am-------29.96-------
2024-05-27 01:30 am-------29.96-------
2024-05-27 01:20 am-------29.96-------
2024-05-27 01:10 am-------29.96-------
2024-05-27 01:00 am-------29.96+0.01------
2024-05-27 12:50 am-------29.96-------
2024-05-27 12:40 am-------29.96-------
2024-05-27 12:30 am-------29.96-------
2024-05-27 12:20 am-------29.96-------
2024-05-27 12:10 am-------29.96-------
2024-05-27 12:00 am-------29.96+0.02------
2024-05-26 11:50 pm-------29.96-------
2024-05-26 11:40 pm-------29.96-------
2024-05-26 11:30 pm-------29.96-------
2024-05-26 11:20 pm-------29.96-------
2024-05-26 11:10 pm-------29.96-------
2024-05-26 11:00 pm-------29.96+0.02------
2024-05-26 10:50 pm-------29.95-------
2024-05-26 10:40 pm-------29.95-------
2024-05-26 10:30 pm-------29.95-------
2024-05-26 10:20 pm-------29.95-------
2024-05-26 10:10 pm-------29.95-------
2024-05-26 10:00 pm-------29.94+0.02------
2024-05-26 09:50 pm-------29.94-------
2024-05-26 09:40 pm-------29.94-------
2024-05-26 09:30 pm-------29.94-------
2024-05-26 09:20 pm-------29.94-------
2024-05-26 09:10 pm-------29.94-------
2024-05-26 09:00 pm-------29.94+0.02------
2024-05-26 08:50 pm-------29.93-------
2024-05-26 08:40 pm-------29.93-------
2024-05-26 08:20 pm-------29.93-------
2024-05-26 08:10 pm-------29.93-------
2024-05-26 08:00 pm-------29.93+0.02------
2024-05-26 07:50 pm-------29.93-------
2024-05-26 07:40 pm-------29.93-------
2024-05-26 07:20 pm-------29.93-------
2024-05-26 07:10 pm-------29.93-------
2024-05-26 07:00 pm-------29.92+0.00------
2024-05-26 06:50 pm-------29.92-------
2024-05-26 06:40 pm-------29.92-------
2024-05-26 06:30 pm-------29.92-------
2024-05-26 06:20 pm-------29.92-------
2024-05-26 06:10 pm-------29.92-------
2024-05-26 06:00 pm-------29.92-0.02------
2024-05-26 05:50 pm-------29.91-------